Weather History for Thermopolis, WY

Change the Weather History Date:

Friday, November 30, 2012

  Actual Average (KWRL) Record (KWRL)
Temperature  
Mean Temperature 37 °F 22 °F  
Max Temperature 42 °F 35 °F 70 °F (1999)
Min Temperature 32 °F 9 °F -25 °F (1975)
Degree Days  
Heating Degree Days 28 43  
Month to date heating degree days 1031  
Since 1 July heating degree days 1892  
Cooling Degree Days 0 0  
Month to date cooling degree days 0  
Year to date cooling degree days 535  
Moisture  
Dew Point 25 °F    
Average Humidity 60    
Maximum Humidity 80    
Minimum Humidity 39    
Precipitation  
Precipitation 0.00 in 0.01 in 0.20 in (1968)
Month to date precipitation 0.35  
Year to date precipitation 7.34  
Sea Level Pressure  
Sea Level Pressure 29.96 in    
Wind  
Wind Speed 11 mph ()    
Max Wind Speed 20 mph    
Max Gust Speed 28 mph    
Visibility 10.0 miles    
Events      
T = Trace of Precipitation, MM = Missing Value Source: Averaged Metar Reports

Daily Weather History Graph

Daily Weather History Graph

Search for Another Location

Airport:

Trip Planner

Search our weather history database for the weather conditions in past years. The results will help you decide how hot, cold, wet, or windy it might be!

Date:

Astronomy

Nov. 30, 2012 Rise Set
Actual Time 7:25 AM MST 4:38 PM MST
Civil Twilight 6:53 AM MST 5:10 PM MST
Nautical Twilight 6:17 AM MST 5:45 PM MST
Astronomical Twilight 5:43 AM MST 6:20 PM MST
Moon 6:36 PM MST (11/30) 8:59 AM MST (11/30)
Length of Visible Light 10h 16m
Length of Day
9h 12m
Waning Gibbous, 96% of the Moon is Illuminated
Nov 30
Waning Gibbous
Dec 6
Last Quarter
Dec 13
New
Dec 19
First Quarter
Dec 28
Full

Hourly Weather History & Observations

Time (MST) Temp. Windchill Dew Point Humidity Pressure Visibility Wind Dir Wind Speed Gust Speed Precip Events Conditions
12:15 AM 39.2 °F 32.5 °F 19.4 °F 45% 30.08 in 10.0 mi South 10.4 mph - N/A   Clear
12:35 AM 39.2 °F 33.6 °F 19.4 °F 45% 30.08 in 10.0 mi SSE 8.1 mph - N/A   Clear
1:15 AM 35.6 °F 27.1 °F 19.4 °F 52% 30.06 in 10.0 mi SE 12.7 mph - N/A   Scattered Clouds
1:35 AM 35.6 °F 26.2 °F 19.4 °F 52% 30.06 in 10.0 mi SSE 15.0 mph - N/A   Clear
1:55 AM 35.6 °F 28.0 °F 19.4 °F 52% 30.05 in 10.0 mi SSE 10.4 mph - N/A   Clear
2:15 AM 35.6 °F 27.1 °F 19.4 °F 52% 30.04 in 10.0 mi South 12.7 mph - N/A   Clear
2:35 AM 37.4 °F 29.3 °F 19.4 °F 48% 30.05 in 10.0 mi South 12.7 mph - N/A   Clear
2:55 AM 37.4 °F 30.8 °F 19.4 °F 48% 30.06 in 10.0 mi SSW 9.2 mph - N/A   Clear
3:15 AM 41.0 °F 34.7 °F 19.4 °F 42% 30.06 in 10.0 mi South 10.4 mph - N/A   Clear
3:35 AM 41.0 °F 34.7 °F 17.6 °F 39% 30.06 in 10.0 mi South 10.4 mph - N/A   Clear
3:55 AM 41.0 °F 34.7 °F 17.6 °F 39% 30.05 in 10.0 mi South 10.4 mph - N/A   Clear
4:15 AM 41.0 °F 34.7 °F 19.4 °F 42% 30.04 in 10.0 mi South 10.4 mph - N/A   Clear
4:35 AM 37.4 °F 32.1 °F 19.4 °F 48% 30.03 in 10.0 mi SSE 6.9 mph - N/A   Clear
4:55 AM 41.0 °F 34.7 °F 19.4 °F 42% 30.03 in 10.0 mi South 10.4 mph - N/A   Clear
5:15 AM 41.0 °F 34.7 °F 21.2 °F 45% 30.03 in 10.0 mi South 10.4 mph - N/A   Clear
5:35 AM 41.0 °F 35.2 °F 21.2 °F 45% 30.02 in 10.0 mi SSE 9.2 mph - N/A   Clear
5:55 AM 41.0 °F 33.9 °F 21.2 °F 45% 30.01 in 10.0 mi South 12.7 mph - N/A   Clear
6:15 AM 33.8 °F 27.7 °F 21.2 °F 60% 30.02 in 10.0 mi SSE 6.9 mph - N/A   Clear
6:35 AM 33.8 °F 25.8 °F 23.0 °F 65% 30.01 in 10.0 mi SE 10.4 mph - N/A   Clear
6:55 AM 33.8 °F 24.3 °F 23.0 °F 65% 30.00 in 10.0 mi SE 13.8 mph - N/A   Clear
7:15 AM 33.8 °F 23.5 °F 24.8 °F 70% 29.99 in 10.0 mi SE 16.1 mph - N/A   Clear
7:35 AM 32.0 °F 20.1 °F 24.8 °F 75% 29.99 in 10.0 mi SE 19.6 mph - N/A   Clear
7:55 AM 32.0 °F 21.2 °F 24.8 °F 75% 29.99 in 10.0 mi ESE 16.1 mph - N/A   Clear
8:15 AM 33.8 °F 23.5 °F 24.8 °F 70% 29.99 in 10.0 mi ESE 16.1 mph - N/A   Clear
8:35 AM 33.8 °F 23.9 °F 24.8 °F 70% 29.98 in 10.0 mi ESE 15.0 mph - N/A   Clear
9:15 AM 32.0 °F 23.6 °F 26.6 °F 80% 29.97 in 10.0 mi SE 10.4 mph - N/A   Clear
9:35 AM 32.0 °F 24.2 °F 26.6 °F 80% 29.97 in 10.0 mi SE 9.2 mph - N/A   Clear
9:55 AM 33.8 °F 25.8 °F 26.6 °F 75% 29.97 in 10.0 mi SE 10.4 mph - N/A   Clear
10:15 AM 33.8 °F 25.8 °F 26.6 °F 75% 29.97 in 10.0 mi SE 10.4 mph - N/A   Clear
10:35 AM 33.8 °F 25.8 °F 26.6 °F 75% 29.97 in 10.0 mi SE 10.4 mph - N/A   Clear
10:55 AM 33.8 °F 26.4 °F 26.6 °F 75% 29.97 in 10.0 mi SE 9.2 mph - N/A   Clear
11:15 AM 35.6 °F 29.2 °F 24.8 °F 65% 29.96 in 10.0 mi ESE 8.1 mph - N/A   Clear
11:35 AM 35.6 °F 28.0 °F 24.8 °F 65% 29.96 in 10.0 mi ESE 10.4 mph - N/A   Clear
11:55 AM 35.6 °F 28.0 °F 26.6 °F 70% 29.95 in 10.0 mi SE 10.4 mph - N/A   Clear
12:15 PM 37.4 °F 29.8 °F 26.6 °F 65% 29.94 in 10.0 mi SE 11.5 mph - N/A   Clear
12:35 PM 37.4 °F 28.9 °F 26.6 °F 65% 29.92 in 10.0 mi ESE 13.8 mph - N/A   Clear
12:55 PM 39.2 °F 30.5 °F 26.6 °F 61% 29.90 in 10.0 mi ESE 16.1 mph - N/A   Clear
1:15 PM 41.0 °F 32.8 °F 26.6 °F 57% 29.90 in 10.0 mi SE 16.1 mph 20.7 mph N/A   Clear
1:35 PM 41.0 °F 31.9 °F 26.6 °F 57% 29.88 in 10.0 mi SE 19.6 mph 24.2 mph N/A   Clear
1:55 PM 41.0 °F 32.2 °F 28.4 °F 61% 29.85 in 10.0 mi East 18.4 mph 27.6 mph N/A   Clear
2:15 PM 41.0 °F 31.9 °F 28.4 °F 61% 29.87 in 10.0 mi SE 19.6 mph - N/A   Clear
2:35 PM 41.0 °F 33.5 °F 28.4 °F 61% 29.87 in 10.0 mi SE 13.8 mph - N/A   Clear
3:15 PM 42.8 °F 36.6 °F 26.6 °F 53% 29.87 in 10.0 mi SE 11.5 mph - N/A   Clear
3:35 PM 42.8 °F 35.4 °F 26.6 °F 53% 29.87 in 10.0 mi SE 15.0 mph - N/A   Clear
3:55 PM 41.0 °F 33.9 °F 28.4 °F 61% 29.87 in 10.0 mi ESE 12.7 mph - N/A   Clear
4:15 PM 41.0 °F 33.5 °F 28.4 °F 61% 29.87 in 10.0 mi ESE 13.8 mph - N/A   Clear
4:35 PM 41.0 °F 33.9 °F 28.4 °F 61% 29.89 in 10.0 mi ESE 12.7 mph - N/A   Clear
4:55 PM 41.0 °F 33.9 °F 28.4 °F 61% 29.89 in 10.0 mi ESE 12.7 mph - N/A   Clear
5:35 PM 39.2 °F 33.0 °F 28.4 °F 65% 29.89 in 10.0 mi SE 9.2 mph - N/A   Clear
6:15 PM 41.0 °F 33.9 °F 26.6 °F 57% 29.90 in 10.0 mi South 12.7 mph - N/A   Clear
6:35 PM 41.0 °F 35.8 °F 26.6 °F 57% 29.90 in 10.0 mi SSE 8.1 mph - N/A   Clear
6:55 PM 39.2 °F 32.5 °F 28.4 °F 65% 29.89 in 10.0 mi ESE 10.4 mph - N/A   Clear
7:15 PM 39.2 °F 32.5 °F 28.4 °F 65% 29.89 in 10.0 mi SSE 10.4 mph - N/A   Clear
7:35 PM 37.4 °F 30.3 °F 28.4 °F 70% 29.89 in 10.0 mi SSE 10.4 mph - N/A   Clear
7:55 PM 37.4 °F 30.8 °F 28.4 °F 70% 29.89 in 10.0 mi SSE 9.2 mph - N/A   Clear
8:15 PM 37.4 °F 29.8 °F 28.4 °F 70% 29.90 in 10.0 mi SE 11.5 mph - N/A   Clear
8:35 PM 37.4 °F 31.4 °F 28.4 °F 70% 29.91 in 10.0 mi SSE 8.1 mph - N/A   Clear
8:55 PM 37.4 °F 30.8 °F 28.4 °F 70% 29.91 in 10.0 mi SSE 9.2 mph - N/A   Clear
9:15 PM 39.2 °F 29.8 °F 26.6 °F 61% 29.91 in 10.0 mi South 18.4 mph - N/A   Clear
9:35 PM 39.2 °F 30.8 °F 26.6 °F 61% 29.91 in 10.0 mi South 15.0 mph - N/A   Clear
9:55 PM 41.0 °F 34.3 °F 26.6 °F 57% 29.92 in 10.0 mi SSE 11.5 mph - N/A   Clear
10:15 PM 41.0 °F 35.8 °F 26.6 °F 57% 29.91 in 10.0 mi SSE 8.1 mph - N/A   Clear
10:35 PM 37.4 °F 32.8 °F 28.4 °F 70% 29.91 in 10.0 mi SSE 5.8 mph - N/A   Clear
10:55 PM 37.4 °F 32.1 °F 26.6 °F 65% 29.91 in 10.0 mi SE 6.9 mph - N/A   Clear
11:15 PM 39.2 °F 31.2 °F 26.6 °F 61% 29.91 in 10.0 mi South 13.8 mph - N/A   Clear
11:35 PM 41.0 °F 33.9 °F 26.6 °F 57% 29.91 in 10.0 mi South 12.7 mph - N/A   Clear
11:55 PM 41.0 °F 35.2 °F 28.4 °F 61% 29.91 in 10.0 mi SSE 9.2 mph - N/A   Clear